This demonstration page uses our WeatherBlox Daily Observations layout. Learn more.

41.55636, -103.73856

Hourly Observations for May 8, 2015

Temp ( °F °C ) Dew Point ( °F °C ) Humidity (%) Winds ( mph kmh ) Pressure ( in mb ) Visibility ( mi km ) Precip ( " mm )
12:53 am 00:53 Mostly Cloudy 42 5.6 38 3.3 85 85 E 3 6 30.05 1018 10 16.0934 0 0
1:53 am 01:53 Cloudy 43 6.1 36 2.2 76 76 ESE 7 11 30.04 1017 10 16.0934 0 0
2:53 am 02:53 Cloudy 43 6.1 38 3.3 82 82 ESE 6 9 30.04 1017 10 16.0934 0 0
3:53 am 03:53 Cloudy 44 6.7 38 3.3 79 79 ESE 5 7 30.05 1018 10 16.0934 0 0
4:53 am 04:53 Cloudy 45 7.2 39 3.9 80 80 Calm 30.06 1018 10 16.0934 0 0
5:53 am 05:53 Cloudy 45 7.2 38 3.3 77 77 Calm 30.06 1018 10 16.0934 0 0
6:53 am 06:53 Cloudy 45 7.2 38 3.3 77 77 E 6 9 30.07 1018 10 16.0934 0 0
7:53 am 07:53 Cloudy 46 7.8 38 3.3 73 73 ESE 10 17 30.08 1019 10 16.0934 0 0
8:53 am 08:53 Cloudy 47 8.3 36 2.2 66 66 ESE 12 19 30.08 1019 10 16.0934 0 0
9:53 am 09:53 Cloudy 48 8.9 37 2.8 66 66 ESE 13 20 30.07 1018 10 16.0934 0 0
10:53 am 10:53 Cloudy 48 8.9 38 3.3 68 68 SE 10 17 30.08 1019 10 16.0934 0 0
11:53 am 11:53 Cloudy 52 11.1 39 3.9 61 61 ESE 12 19 30.03 1017 10 16.0934 0 0
12:53 pm 12:53 Cloudy 52 11.1 37 2.8 57 57 ESE 8 13 30.03 1017 10 16.0934 0 0
1:53 pm 13:53 Cloudy 53 11.7 38 3.3 57 57 ESE 14 22 30.02 1017 10 16.0934 0 0
2:53 pm 14:53 Cloudy 53 11.7 40 4.4 61 61 SE 15 24 30.01 1016 10 16.0934 0 0
3:53 pm 15:53 Cloudy with Light Rain 52 11.1 42 5.6 69 69 SE 14 22 29.99 1016 10 16.0934 0 0.0254
4:53 pm 16:53 Cloudy with Light Rain 49 9.4 47 8.3 93 93 E 13 20 29.99 1016 4 6.43736 0.05 1.27
5:53 pm 17:53 Cloudy 50 10 50 10 100 100 E 14 22 29.98 1015 9 14.48406 0.01 0.254
5:58 pm 17:58 Cloudy 50 10 N/A N/A E 13 20 29.94 1014 9 14.48406 0 0
6:37 pm 18:37 Cloudy with Light Rain 50 10 N/A N/A ESE 10 17 29.94 1014 5 8.0467 0.01 0.254
6:53 pm 18:53 Cloudy with Light Rain 50 10 N/A N/A ESE 9 15 29.98 1015 5 8.0467 0.01 0.254
7:53 pm 19:53 Cloudy with Mist and Fog 50 10 48 8.9 93 93 E 7 11 29.99 1016 6 9.65604 0 0.0254
8:53 pm 20:53 Cloudy with Mist and Fog 49 9.4 48 8.9 97 97 E 8 13 29.98 1015 6 9.65604 0.02 0.508
9:20 pm 21:20 Cloudy with Mist and Fog 50 10 48 9 94 94 E 9 15 29.94 1014 6 9.65604 0 0
9:37 pm 21:37 Cloudy with Light Rain 50 10 48 8.9 93 93 E 8 13 29.94 1014 6 9.65604 0 0.0254
9:50 pm 21:50 Cloudy with Rain 48 9 48 9 100 100 E 10 17 29.97 1015 3 4.82802 0 0
9:53 pm 21:53 Cloudy with Rain 49 9.4 48 8.9 97 97 E 10 17 29.99 1016 3 4.82802 0.02 0.508
10:53 pm 22:53 Cloudy 49 9.4 47 8.3 93 93 E 12 19 29.98 1015 10 16.0934 0.01 0.254
11:44 pm 23:44 Cloudy 48 9 46 8 94 94 E 12 19 29.97 1015 10 16.0934 0 0
11:53 pm 23:53 Cloudy 49 9.4 46 7.8 90 90 E 13 20 29.95 1014 10 16.0934 0 0.0254

Powered by AerisWeather